Content
SEND FEEDBACK

Daily
Averages
Monthly
Summary
Turkmenistan

ASHGABAT, TURKMENISTAN


Home > Asia > Turkmenistan
Elevation: 775 feet     Latitude: 37 58N     Longitude: 058 20E

WEATHER
 
SELECT A DAY
Number of Records: 180,407;   Date Range: 3/15/97 - 9/30/14
 
SHARE

PRINT THIS DATA

[ ← Previous Day ]
WEATHER ALMANAC - JULY 11, 2014
[ Next Day → ]
[ °C ]   °F
Weather ElementAverageHighLow
Temperature94.2 °F102.2 °F (12:00 pm)86 °F (1:00 am)
Dewpoint57.7 °F66 °F (8:00 am)53.6 °F (9:00 am)
Humidity28.5 %45 % (7:00 am)16 % (6:00 am)
Barometer29.76 in29.83 in (10:00 am)29.70 in (2:00 pm)
Wind Speed10 mph17.9 mph (3:30 pm)
Weather ElementAverage
Visibility6.1 mi
Wind DirectionWNW (287.1 °)

Weather ElementTotal
Precipitation---
Cooling Degree Days29.1 (Base 65)
Growing Degree Days44.1 (Base 50)
Averaged from 35 records on July 11, 2014
WEATHER CONDITIONS BREAKOUT
WIND DIRECTION BREAKOUT
WEATHER BY HOUR - JULY 11, 2014
[ °C ]   °F
Local TimeTemperatureDewpointHumidityBarometerVisibilityWind DirectionWind SpeedGust SpeedPrecipitationEventsConditions
12:00 AM93.2 °F59.0 °F32 %29.71 in6.2 miWest (280°)8.9 mphClear
1:00 AM91.4 °F59.0 °F34 %29.71 in6.2 miWest (280°)13.4 mphClear
2:00 AM91.0 °F64.0 °F31 %29.70 in6.0 miWest (280°)13.4 mph
2:00 AM91.4 °F60.8 °F36 %29.71 in6.2 miWest (280°)11.2 mphClear
3:00 AM89.6 °F62.6 °F40 %29.71 in6.2 miWest (270°)8.9 mphClear
4:00 AM87.8 °F60.8 °F40 %29.74 in6.2 miWest (270°)6.7 mphClear
5:00 AM86.0 °F66.0 °F41 %29.73 in6.0 miNW (310°)11.2 mph
5:00 AM86.0 °F62.6 °F45 %29.74 in6.2 miNW (310°)11.2 mphClear
6:00 AM86.0 °F62.6 °F45 %29.74 in6.2 miWNW (300°)11.2 mphPartly Cloudy
7:00 AM86.0 °F57.2 °F37 %29.77 in6.2 miWNW (290°)15.7 mphScattered Clouds
8:00 AM87.0 °F58.0 °F28 %29.78 in6.0 miWNW (300°)15.7 mphScattered Clouds
8:00 AM87.8 °F59.0 °F38 %29.80 in6.2 miWNW (300°)15.7 mphPartly Cloudy
9:00 AM89.6 °F59.0 °F36 %29.80 in6.2 miNW (310°)15.7 mphPartly Cloudy
10:00 AM91.4 °F57.2 °F31 %29.83 in6.2 miNW (310°)17.9 mphPartly Cloudy
11:00 AM92.0 °F59.0 °F23 %29.80 in6.0 miNW (320°)15.7 mphScattered Clouds
11:00 AM93.2 °F55.4 °F28 %29.80 in6.2 miNW (320°)15.7 mphScattered Clouds
12:00 PM96.8 °F53.6 °F23 %29.80 in6.2 miNW (320°)13.4 mphScattered Clouds
12:30 PM98.6 °F55.4 °F24 %29.80 in6.2 miNW (310°)11.2 mphScattered Clouds
1:00 PM100.4 °F53.6 °F21 %29.77 in6.2 miNW (310°)8.9 mphScattered Clouds
1:30 PM100.4 °F53.6 °F21 %29.77 in6.2 miNorth (350°)8.9 mphScattered Clouds
2:00 PM99.0 °F57.0 °F16 %29.77 in6.0 miNNW (330°)6.7 mphScattered Clouds
2:00 PM102.2 °F53.6 °F20 %29.77 in6.2 miNNW (340°)6.7 mphScattered Clouds
3:00 PM102.2 °F53.6 °F20 %29.77 in6.2 miNorth (350°)6.7 mphScattered Clouds
4:00 PM102.2 °F53.6 °F20 %29.77 in6.2 miWNW (290°)4.5 mphMostly Cloudy
5:00 PM101.0 °F59.0 °F16 %29.73 in6.0 miWest (270°)8.9 mphMostly Cloudy
5:00 PM100.4 °F53.6 °F21 %29.74 in6.2 miWest (260°)6.7 mphMostly Cloudy
6:00 PM100.4 °F53.6 °F21 %29.74 in6.2 miVariable2.2 mphOvercast
7:00 PM100.4 °F53.6 °F21 %29.74 in6.2 miWNW (300°)4.5 mphMostly Cloudy
8:00 PM92.0 °F63.0 °F29 %29.75 in6.0 miWSW (250°)6.7 mphScattered Clouds
8:00 PM100.4 °F53.6 °F21 %29.74 in6.2 miWest (280°)8.9 mphMostly Cloudy
9:00 PM96.8 °F55.4 °F25 %29.74 in6.2 miWest (270°)6.7 mphMostly Cloudy
9:30 PM96.8 °F55.4 °F25 %29.74 in5.0 miWest (280°)6.7 mphMostly Cloudy
10:00 PM93.2 °F57.2 °F30 %29.77 in5.6 miWNW (300°)8.9 mphMostly Cloudy
11:00 PM92.0 °F63.0 °F29 %29.75 in6.0 miWSW (250°)6.7 mphScattered Clouds
11:00 PM93.2 °F57.2 °F30 %29.77 in5.0 miWest (260°)8.9 mphScattered Clouds
Hourly data recorded from UTAA, located miles away from Ashgabat, Turkmenistan







STORIES FROM OUR PARTNERS